Find Starlink 5621

NORAD ID: 55434 Int'l Des: 2023-014 Owner: SPXS Country: US Constellation: starlink operational
LEOCIRCULAR

当前视图

正在加载3D地球...

关于 Starlink 5621

正在加载描述...

即将过境

Passes for default location (London). Set your location on the main map for personalized predictions.

高度历史

Loading altitude history...

两行轨道根数

1 55434U 23014AV 26150.70760473 .00000467 00000-0 46921-4 0 9992
2 55434 69.9994 257.6760 0003191 268.2328 91.8466 14.98330983183359
Epoch: May 30, 2026 • Age: 9 hours

当前状态

高度 577.9 km
速度 7.57 km/s
星下点 -18.90°S, 167.02°E
发射日期 Jan 31, 2023
运行时间 3.3 years
类型 internet

技术详情

分类 Payload
质量 305.00 kg
干质量 290.00 kg
总质量 305.00 kg
长度 0.20 m
直径 2.80 m
跨度 9.00 m
形状 Box + pan
制造商 SPXS
平台类型 Starlink
阶段状态 In Orbit
所有者/国家 SPXS/US

Most Searched